EW3511 Weather Reports


time (UTC)temp
C
wind
direction
speed
KPH
gust
KPH
rain 1hr
cm
rain 24hr
cm
rain mn
cm
humidity
%
barometer
mb
20260506050600 10 0.0 0.0 0.00 0.08 0.03 99 1006.9
20260506044533 8 0.0 0.0 0.00 0.08 0.03 99 1006.5
20260506043553 8 75 0.0 1.6 0.00 0.08 0.03 99 1006.5
20260506042534 8 108 0.0 1.6 0.00 0.08 0.03 99 1006.7
20260506041536 8 0.0 0.0 0.00 0.08 0.03 99 1006.8
20260506040614 8 124 0.0 1.6 0.00 0.08 0.03 99 1006.8
20260506035536 8 60 0.0 1.6 0.00 0.08 0.03 99 1006.8
20260506034535 9 0.0 0.0 0.00 0.08 0.03 99 1006.8
20260506033536 9 0.0 0.0 0.00 0.08 0.03 99 1006.8
20260506032557 9 0.0 0.0 0.00 0.08 0.03 99 1007.0
20260506031931 9 0.0 0.0 0.00 0.08 0.03 99 1007.2
20260506030538 9 0.0 0.0 0.00 0.08 0.03 99 1007.4
20260506025539 9 0.0 0.0 0.00 0.08 0.03 99 1007.5
20260506024539 9 0.0 0.0 0.00 0.08 0.03 99 1007.7
20260506023539 9 0.0 0.0 0.00 0.08 0.03 99 1007.7
20260506022559 9 0.0 0.0 0.00 0.08 0.03 99 1007.6
20260506021538 9 0.0 0.0 0.00 0.08 0.03 99 1007.5
20260506020538 9 0.0 0.0 0.00 0.08 0.03 99 1007.4
20260506015538 9 0.0 0.0 0.00 0.08 0.03 99 1007.6
20260506014540 9 0.0 0.0 0.00 0.08 0.03 99 1007.6
20260506013539 9 0.0 0.0 0.00 0.08 0.03 99 1007.8
20260506012540 9 0.0 0.0 0.00 0.08 0.03 99 1007.9
20260506011600 9 0.0 0.0 0.00 0.08 0.03 99 1007.8
20260506010541 10 0.0 0.0 0.00 0.08 0.03 99 1007.7
20260506005541 10 0.0 0.0 0.00 0.08 0.03 99 1007.6
20260506004541 10 0.0 0.0 0.00 0.08 0.03 99 1007.8
20260506003542 10 0.0 0.0 0.00 0.08 0.03 99 1007.9
20260506002602 11 0.0 0.0 0.00 0.08 0.03 99 1007.8
20260506001603 11 0.0 0.0 0.00 0.08 0.03 99 1008.0
20260506000543 11 0.0 0.0 0.00 0.08 0.03 98 1008.1
20260505235603 11 0.0 1.6 0.00 0.08 0.03 98 1008.1
20260505234545 11 0.0 0.0 0.00 0.08 0.03 98 1008.1
20260505233545 11 0.0 0.0 0.00 0.08 0.03 98 1008.3
20260505232545 11 125 0.0 3.2 0.00 0.08 0.03 97 1008.3
20260505231545 11 0.0 1.6 0.03 0.08 0.03 96 1008.4
20260505230546 11 151 0.0 3.2 0.03 0.08 0.03 96 1008.3
20260505225547 11 132 0.0 3.2 0.03 0.08 0.03 96 1008.3
20260505224546 11 179 1.6 8.0 0.03 0.08 0.03 96 1008.3
20260505223548 11 132 1.6 4.8 0.05 0.08 0.03 97 1008.4
20260505222547 12 99 1.6 8.0 0.05 0.08 0.03 96 1008.6
20260505221548 12 180 3.2 9.7 0.03 0.05 0.00 96 1008.7
20260505220548 12 210 3.2 9.7 0.05 0.05 0.00 96 1008.9
20260505215549 12 194 3.2 8.0 0.05 0.05 0.05 97 1008.9
20260505214549 12 195 3.2 8.0 0.05 0.05 0.05 95 1008.8
20260505213549 12 160 3.2 9.7 0.03 0.03 0.03 94 1008.6
20260505212550 12 181 1.6 8.0 0.03 0.03 0.03 94 1008.6
20260505211551 12 169 1.6 8.0 0.03 0.03 0.03 91 1008.6
20260505210551 13 268 3.2 11.3 0.00 0.00 0.00 87 1008.5
20260505205552 14 233 6.4 14.5 0.00 0.00 0.00 81 1008.2
20260505204551 14 188 3.2 14.5 0.00 0.00 0.00 80 1008.1
20260505203552 14 216 4.8 14.5 0.00 0.00 0.00 81 1007.9
20260505202552 14 163 3.2 11.3 0.00 0.00 0.00 81 1007.7
20260505201553 13 109 1.6 3.2 0.00 0.00 0.00 82 1007.3
20260505200553 13 0.0 0.0 0.00 0.00 0.00 84 1007.0
20260505195633 14 116 0.0 1.6 0.00 0.00 0.00 84 1006.9
20260505194554 14 156 1.6 4.8 0.00 0.00 0.00 82 1006.5
20260505193615 15 152 0.0 3.2 0.00 0.00 0.00 83 1006.4
20260505192554 15 163 1.6 4.8 0.00 0.00 0.00 81 1006.2
20260505191555 15 54 1.6 4.8 0.00 0.00 0.00 80 1005.8
20260505190555 15 94 0.0 3.2 0.00 0.00 0.00 84 1006.1
20260505185616 14 30 0.0 4.8 0.00 0.00 0.00 84 1006.2
20260505184556 15 139 0.0 3.2 0.00 0.00 0.00 85 1006.2
20260505183557 15 128 0.0 3.2 0.00 0.00 0.00 83 1005.8
20260505182617 15 19 1.6 4.8 0.00 0.00 0.00 81 1005.5
20260505181559 15 47 1.6 4.8 0.00 0.00 0.00 80 1005.3
20260505180558 15 100 0.0 3.2 0.00 0.00 0.00 78 1005.2
20260505175558 16 136 0.0 3.2 0.00 0.00 0.00 78 1005.0
20260505174559 16 97 0.0 4.8 0.00 0.00 0.00 78 1005.0
20260505173620 16 84 1.6 3.2 0.00 0.00 0.00 77 1004.9
20260505172620 16 28 3.2 8.0 0.00 0.00 0.00 77 1004.9
20260505171600 16 73 1.6 4.8 0.00 0.00 0.00 76 1004.9
20260505170601 16 42 3.2 9.7 0.00 0.00 0.00 73 1004.8
20260505165601 17 28 3.2 8.0 0.00 0.00 0.00 71 1005.0
20260505164601 17 76 1.6 9.7 0.00 0.00 0.00 71 1005.0
20260505163602 17 23 3.2 8.0 0.00 0.00 0.00 72 1004.7
20260505162603 17 20 3.2 4.8 0.00 0.00 0.00 72 1004.9
20260505161603 17 39 1.6 8.0 0.00 0.00 0.00 72 1005.0
20260505160603 16 66 1.6 8.0 0.00 0.00 0.00 74 1004.9
20260505152533 16 51 1.6 9.7 0.00 0.00 0.00 75 1005.4
20260505151533 16 52 3.2 8.0 0.00 0.00 0.00 76 1005.5
20260505150533 17 101 1.6 4.8 0.00 0.00 0.00 74 1005.6
20260505140536 20 229 6.4 16.1 0.00 0.00 0.00 55 1005.1
20260505124620 24 349 0.0 3.2 0.00 0.00 0.00 38 1004.7
20260505123540 24 108 1.6 3.2 0.00 0.00 0.00 38 1004.7
20260505122540 23 60 1.6 4.8 0.00 0.00 0.00 39 1004.8
20260505121601 23 59 4.8 9.7 0.00 0.00 0.00 38 1004.8
20260505120621 24 43 3.2 9.7 0.00 0.00 0.00 37 1004.9
20260505115541 25 179 1.6 4.8 0.00 0.00 0.00 35 1005.0
20260505114602 23 84 1.6 4.8 0.00 0.00 0.00 35 1005.0
20260505113542 23 107 4.8 8.0 0.00 0.00 0.00 37 1005.1
20260505112543 23 101 3.2 9.7 0.00 0.00 0.00 35 1005.3
20260505111543 23 85 3.2 9.7 0.00 0.00 0.00 37 1005.3
20260505110544 23 54 3.2 9.7 0.00 0.00 0.00 41 1005.5
20260505101606 23 74 4.8 9.7 0.00 0.00 0.00 45 1006.3
20260505100546 23 182 1.6 4.8 0.00 0.00 0.00 42 1006.3
20260505095607 22 125 1.6 4.8 0.00 0.00 0.00 41 1006.5
20260505094608 22 133 1.6 4.8 0.00 0.00 0.00 49 1006.5
20260505093547 21 62 1.6 4.8 0.00 0.00 0.00 50 1006.6
20260505092547 22 93 1.6 8.0 0.00 0.00 0.00 51 1007.1
20260505091548 22 129 1.6 4.8 0.00 0.00 0.00 48 1007.1
20260505090548 21 151 1.6 4.8 0.00 0.00 0.00 48 1007.1
20260505085550 20 95 1.6 4.8 0.00 0.00 0.00 54 1007.2
20260505084549 21 53 1.6 3.2 0.00 0.00 0.00 55 1007.2
20260505083551 21 53 1.6 4.8 0.00 0.00 0.00 58 1007.2
20260505082550 20 117 1.6 4.8 0.00 0.00 0.00 59 1007.5
20260505081551 20 104 1.6 3.2 0.00 0.00 0.00 63 1007.6
20260505080551 18 136 0.0 1.6 0.00 0.00 0.00 67 1007.7
20260505075552 17 74 0.0 1.6 0.00 0.00 0.00 71 1007.7
20260505074552 17 72 1.6 3.2 0.00 0.00 0.00 71 1007.8
20260505073612 17 69 0.0 1.6 0.00 0.00 0.00 70 1007.8
20260505072554 17 109 0.0 3.2 0.00 0.00 0.00 71 1007.9
20260505071553 17 21 1.6 3.2 0.00 0.00 0.00 70 1008.0
20260505070554 17 69 0.0 3.2 0.00 0.00 0.00 72 1008.1
20260505065554 16 62 1.6 3.2 0.00 0.00 0.00 74 1008.1
20260505064554 16 30 1.6 4.8 0.00 0.00 0.00 73 1008.1
20260505063555 16 69 1.6 3.2 0.00 0.00 0.00 73 1008.0
20260505062555 16 86 1.6 3.2 0.00 0.00 0.00 74 1008.1
20260505061616 15 79 1.6 8.0 0.00 0.00 0.00 75 1008.0
20260505060616 15 77 1.6 4.8 0.00 0.00 0.00 75 1008.1